AAL253 MUHA-KMIA

Flight info

Callsign AAL253
Flight time 0h 40m
Altitude 25000
Route EPMAR4A MAXIM SNDBR3
Aircraft B738/M-SDE2E3FGHIRWXY/LB1

Departure

Time 2026-04-30 21:03
Airport José Martí International Airport (MUHA)

Arrival

Time 2026-04-30 21:44
Airport Miami International Airport (KMIA)
Time Latitude Longitude Altitude Speed Heading
2026-04-30 20:19 22.99613 -82.40701 215 ft 0 kts 30°
2026-04-30 20:53 22.99595 -82.40713 218 ft 4 kts 37°
2026-04-30 20:54 22.99570 -82.40754 215 ft 4 kts 124°
2026-04-30 20:54 22.99574 -82.40760 215 ft 0 kts 145°
2026-04-30 20:56 22.99572 -82.40759 217 ft 1 kts 145°
2026-04-30 20:56 22.99550 -82.40742 215 ft 7 kts 145°
2026-04-30 20:56 22.99423 -82.40766 217 ft 13 kts 234°
2026-04-30 20:57 22.99361 -82.40840 219 ft 14 kts 194°
2026-04-30 20:57 22.99271 -82.40792 215 ft 15 kts 147°
2026-04-30 20:57 22.99189 -82.40815 218 ft 14 kts 232°
2026-04-30 20:58 22.99075 -82.40976 217 ft 13 kts 232°
2026-04-30 20:58 22.99021 -82.41053 219 ft 13 kts 232°
2026-04-30 20:58 22.98968 -82.41127 222 ft 12 kts 232°
2026-04-30 20:58 22.98934 -82.41176 220 ft 12 kts 233°
2026-04-30 20:59 22.98825 -82.41363 216 ft 21 kts 234°
2026-04-30 20:59 22.98739 -82.41492 216 ft 21 kts 234°
2026-04-30 21:00 22.98576 -82.41740 219 ft 20 kts 233°
2026-04-30 21:00 22.98421 -82.41972 215 ft 18 kts 234°
2026-04-30 21:01 22.98277 -82.42190 216 ft 17 kts 234°
2026-04-30 21:01 22.98209 -82.42292 215 ft 16 kts 234°
2026-04-30 21:01 22.98072 -82.42499 216 ft 17 kts 234°
2026-04-30 21:02 22.97982 -82.42562 218 ft 17 kts 164°
2026-04-30 21:02 22.97891 -82.42496 216 ft 10 kts 143°
2026-04-30 21:02 22.97900 -82.42436 221 ft 10 kts 55°
2026-04-30 21:02 22.98014 -82.42265 221 ft 59 kts 54°
2026-04-30 21:03 22.98389 -82.41700 218 ft 123 kts 54°
2026-04-30 21:03 22.98996 -82.40796 240 ft 170 kts 53°
2026-04-30 21:03 22.99712 -82.39724 795 ft 175 kts 54°
2026-04-30 21:03 23.00418 -82.38639 1459 ft 181 kts 53°
2026-04-30 21:04 23.01192 -82.37463 1793 ft 206 kts 54°
2026-04-30 21:04 23.02076 -82.36124 2026 ft 230 kts 54°
2026-04-30 21:04 23.04107 -82.33042 2856 ft 262 kts 54°
2026-04-30 21:05 23.05180 -82.31433 3589 ft 264 kts 54°
2026-04-30 21:05 23.06260 -82.29808 4298 ft 268 kts 55°
2026-04-30 21:05 23.07360 -82.28151 4921 ft 273 kts 55°
2026-04-30 21:05 23.08485 -82.26458 5576 ft 278 kts 55°
2026-04-30 21:06 23.09621 -82.24745 6211 ft 282 kts 55°
2026-04-30 21:06 23.10776 -82.23003 6864 ft 286 kts 54°
2026-04-30 21:06 23.11947 -82.21239 7520 ft 289 kts 54°
2026-04-30 21:06 23.13190 -82.19503 8211 ft 292 kts 43°
2026-04-30 21:07 23.14936 -82.18394 8862 ft 295 kts 14°
2026-04-30 21:07 23.16970 -82.18281 9561 ft 296 kts 349°
2026-04-30 21:07 23.18953 -82.18927 10226 ft 300 kts 339°
2026-04-30 21:07 23.20964 -82.19767 10450 ft 321 kts 338°
2026-04-30 21:08 23.23079 -82.20665 10624 ft 340 kts 338°
2026-04-30 21:08 23.25347 -82.21604 10825 ft 356 kts 339°
2026-04-30 21:08 23.27699 -82.22558 11258 ft 364 kts 339°
2026-04-30 21:08 23.30079 -82.23517 11916 ft 364 kts 339°
2026-04-30 21:09 23.32454 -82.24474 12641 ft 363 kts 339°
2026-04-30 21:09 23.34827 -82.25431 13315 ft 365 kts 339°
2026-04-30 21:09 23.37213 -82.26395 13911 ft 368 kts 339°
2026-04-30 21:09 23.39625 -82.27370 14522 ft 371 kts 339°
2026-04-30 21:10 23.42059 -82.28354 15135 ft 374 kts 339°
2026-04-30 21:10 23.44514 -82.29347 15756 ft 377 kts 339°
2026-04-30 21:10 23.46979 -82.30344 16378 ft 379 kts 339°
2026-04-30 21:10 23.49461 -82.31349 16952 ft 383 kts 339°
2026-04-30 21:11 23.51969 -82.32366 17528 ft 386 kts 339°
2026-04-30 21:11 23.54489 -82.33387 18096 ft 388 kts 339°
2026-04-30 21:11 23.57033 -82.34418 18634 ft 391 kts 339°
2026-04-30 21:11 23.59593 -82.35456 19169 ft 394 kts 339°
2026-04-30 21:12 23.62138 -82.36487 19680 ft 396 kts 339°
2026-04-30 21:12 23.64737 -82.37542 20189 ft 399 kts 339°
2026-04-30 21:12 23.67342 -82.38600 20705 ft 400 kts 339°
2026-04-30 21:12 23.69964 -82.39665 21152 ft 403 kts 339°
2026-04-30 21:13 23.72604 -82.40737 21601 ft 406 kts 339°
2026-04-30 21:13 23.75252 -82.41813 22041 ft 408 kts 339°
2026-04-30 21:13 23.77919 -82.42899 22466 ft 410 kts 339°
2026-04-30 21:13 23.80599 -82.43990 22895 ft 412 kts 339°
2026-04-30 21:14 23.83295 -82.45088 23302 ft 414 kts 339°
2026-04-30 21:14 23.86003 -82.46190 23718 ft 416 kts 339°
2026-04-30 21:14 23.88726 -82.47300 24098 ft 419 kts 339°
2026-04-30 21:14 23.91429 -82.48402 24472 ft 420 kts 339°
2026-04-30 21:15 23.94183 -82.49506 24795 ft 423 kts 341°
2026-04-30 21:15 23.97105 -82.50009 24946 ft 431 kts 359°
2026-04-30 21:15 24.00090 -82.49499 24957 ft 440 kts 15°
2026-04-30 21:15 24.02906 -82.48151 24954 ft 445 kts 28°
2026-04-30 21:16 24.05305 -82.46010 24966 ft 448 kts 42°
2026-04-30 21:16 24.07445 -82.43516 24957 ft 450 kts 44°
2026-04-30 21:16 24.09543 -82.40975 24951 ft 450 kts 45°
2026-04-30 21:16 24.11657 -82.38442 24950 ft 450 kts 44°
2026-04-30 21:17 24.13796 -82.35936 24953 ft 450 kts 44°
2026-04-30 21:17 24.15944 -82.33440 24960 ft 450 kts 45°
2026-04-30 21:17 24.17758 -82.30625 24945 ft 457 kts 60°
2026-04-30 21:17 24.19106 -82.27464 24961 ft 458 kts 62°
2026-04-30 21:18 24.20415 -82.24338 24956 ft 458 kts 62°
2026-04-30 21:18 24.21752 -82.21171 24951 ft 457 kts 62°
2026-04-30 21:18 24.23101 -82.18017 24943 ft 457 kts 62°
2026-04-30 21:18 24.24458 -82.14875 24949 ft 456 kts 61°
2026-04-30 21:19 24.25821 -82.11740 24950 ft 455 kts 61°
2026-04-30 21:19 24.27183 -82.08615 24954 ft 454 kts 61°
2026-04-30 21:19 24.28543 -82.05496 24959 ft 454 kts 61°
2026-04-30 21:19 24.29903 -82.02378 24963 ft 454 kts 61°
2026-04-30 21:20 24.31263 -81.99255 24966 ft 454 kts 61°
2026-04-30 21:20 24.32623 -81.96130 24967 ft 454 kts 61°
2026-04-30 21:20 24.33983 -81.93001 24964 ft 455 kts 62°
2026-04-30 21:20 24.35346 -81.89864 24962 ft 455 kts 62°
2026-04-30 21:21 24.36708 -81.86725 24961 ft 455 kts 62°
2026-04-30 21:21 24.38068 -81.83588 24963 ft 456 kts 62°
2026-04-30 21:21 24.40789 -81.77303 24970 ft 456 kts 62°
2026-04-30 21:22 24.42153 -81.74150 24963 ft 457 kts 62°
2026-04-30 21:22 24.46460 -81.64834 24948 ft 453 kts 50°
2026-04-30 21:23 24.48438 -81.62154 24960 ft 452 kts 47°
2026-04-30 21:23 24.50495 -81.59541 24957 ft 452 kts 46°
2026-04-30 21:23 24.54580 -81.54343 24951 ft 453 kts 47°
2026-04-30 21:24 24.56609 -81.51696 24955 ft 453 kts 47°
2026-04-30 21:24 24.58622 -81.49036 24953 ft 453 kts 47°
2026-04-30 21:24 24.60634 -81.46360 24953 ft 454 kts 48°
2026-04-30 21:24 24.62641 -81.43684 24955 ft 454 kts 48°
2026-04-30 21:25 24.66665 -81.38319 24961 ft 455 kts 48°
2026-04-30 21:25 24.68682 -81.35633 24952 ft 456 kts 48°
2026-04-30 21:25 24.70700 -81.32944 24957 ft 456 kts 48°
2026-04-30 21:26 24.74738 -81.27556 24945 ft 453 kts 48°
2026-04-30 21:26 24.76696 -81.24938 24933 ft 434 kts 48°
2026-04-30 21:27 24.80431 -81.19943 24455 ft 414 kts 48°
2026-04-30 21:27 24.82257 -81.17504 23979 ft 412 kts 48°
2026-04-30 21:27 24.84068 -81.15082 23524 ft 408 kts 48°
2026-04-30 21:28 24.88142 -81.10941 22554 ft 395 kts 23°
2026-04-30 21:28 24.90631 -81.09688 22076 ft 393 kts 21°
2026-04-30 21:28 24.95607 -81.07309 21043 ft 391 kts 21°
2026-04-30 21:29 24.98092 -81.06115 20538 ft 389 kts 21°
2026-04-30 21:29 25.05440 -81.02524 19022 ft 381 kts 21°
2026-04-30 21:30 25.10245 -81.00150 18036 ft 376 kts 21°
2026-04-30 21:31 25.17310 -80.96655 16651 ft 367 kts 21°
2026-04-30 21:31 25.21944 -80.94361 15694 ft 362 kts 21°
2026-04-30 21:32 25.26514 -80.92097 14755 ft 358 kts 21°
2026-04-30 21:32 25.28776 -80.90974 14295 ft 355 kts 21°
2026-04-30 21:32 25.31026 -80.89857 13812 ft 353 kts 21°
2026-04-30 21:32 25.33263 -80.88747 13363 ft 351 kts 21°
2026-04-30 21:33 25.35482 -80.87646 12909 ft 349 kts 21°
2026-04-30 21:33 25.39884 -80.85475 12000 ft 344 kts 20°
2026-04-30 21:33 25.42085 -80.84458 11556 ft 342 kts 19°
2026-04-30 21:34 25.44275 -80.83459 11116 ft 340 kts 20°
2026-04-30 21:34 25.48647 -80.81705 10316 ft 333 kts 16°
2026-04-30 21:34 25.50819 -80.80910 9932 ft 324 kts 17°
2026-04-30 21:35 25.52885 -80.80150 9929 ft 302 kts 17°
2026-04-30 21:35 25.54825 -80.79429 9869 ft 287 kts 17°
2026-04-30 21:35 25.56705 -80.78726 9627 ft 284 kts 17°
2026-04-30 21:35 25.58576 -80.78023 9296 ft 284 kts 17°
2026-04-30 21:36 25.60450 -80.77315 8969 ft 284 kts 18°
2026-04-30 21:36 25.62321 -80.76610 8646 ft 284 kts 18°
2026-04-30 21:37 25.66841 -80.72715 7685 ft 281 kts 52°
2026-04-30 21:37 25.68004 -80.70992 7355 ft 277 kts 55°
2026-04-30 21:37 25.69127 -80.69251 6890 ft 278 kts 53°
2026-04-30 21:37 25.70271 -80.67538 6515 ft 273 kts 52°
2026-04-30 21:38 25.71416 -80.65863 6007 ft 274 kts 53°
2026-04-30 21:38 25.72549 -80.64180 5606 ft 270 kts 53°
2026-04-30 21:38 25.73689 -80.62512 5244 ft 269 kts 53°
2026-04-30 21:38 25.74828 -80.60896 4820 ft 269 kts 51°
2026-04-30 21:39 25.75972 -80.59251 4450 ft 270 kts 53°
2026-04-30 21:39 25.77089 -80.57576 4134 ft 270 kts 57°
2026-04-30 21:39 25.77697 -80.55642 3840 ft 266 kts 87°
2026-04-30 21:39 25.77749 -80.53613 3622 ft 262 kts 90°
2026-04-30 21:40 25.77802 -80.51606 3389 ft 259 kts 89°
2026-04-30 21:40 25.77872 -80.49621 3182 ft 255 kts 88°
2026-04-30 21:40 25.77955 -80.47663 2922 ft 253 kts 89°
2026-04-30 21:40 25.78036 -80.45730 2592 ft 249 kts 89°
2026-04-30 21:41 25.78111 -80.43838 2271 ft 242 kts 89°
2026-04-30 21:41 25.78183 -80.42019 1937 ft 227 kts 90°
2026-04-30 21:41 25.78250 -80.40321 1645 ft 213 kts 89°
2026-04-30 21:41 25.78315 -80.38731 1381 ft 198 kts 89°
2026-04-30 21:42 25.78374 -80.37264 1126 ft 183 kts 90°
2026-04-30 21:42 25.78428 -80.35930 900 ft 164 kts 90°
2026-04-30 21:42 25.78474 -80.34726 673 ft 151 kts 90°
2026-04-30 21:42 25.78523 -80.33580 476 ft 150 kts 90°
2026-04-30 21:43 25.78552 -80.32814 355 ft 149 kts 90°
2026-04-30 21:43 25.78604 -80.31663 125 ft 148 kts 89°
2026-04-30 21:43 25.78663 -80.30194 15 ft 128 kts 88°
2026-04-30 21:43 25.78695 -80.29449 13 ft 66 kts 87°
2026-04-30 21:44 25.78705 -80.29196 15 ft 38 kts 86°
2026-04-30 21:44 25.78732 -80.28830 14 ft 30 kts 78°
2026-04-30 21:44 25.78780 -80.28722 14 ft 21 kts 48°
2026-04-30 21:44 25.78916 -80.28684 14 ft 21 kts 357°
2026-04-30 21:45 25.79057 -80.28692 14 ft 20 kts 358°
2026-04-30 21:45 25.79193 -80.28699 13 ft 19 kts 357°
2026-04-30 21:45 25.79304 -80.28766 14 ft 19 kts 313°
2026-04-30 21:45 25.79423 -80.28801 14 ft 18 kts 357°
2026-04-30 21:46 25.79545 -80.28796 14 ft 17 kts 29°
2026-04-30 21:46 25.79585 -80.28674 14 ft 17 kts 75°
2026-04-30 21:46 25.79614 -80.28552 14 ft 16 kts 73°
2026-04-30 21:46 25.79666 -80.28467 16 ft 13 kts 39°
2026-04-30 21:47 25.79714 -80.28449 14 ft 4 kts 359°
2026-04-30 21:47 25.79729 -80.28449 15 ft 1 kts 358°
2026-04-30 21:47 25.79730 -80.28449 15 ft 0 kts 358°